Погода в Черном Затоне

Россия / Саратовская область     52°45′24″N   48°18′46″E
темп.,
°C
ветер,
м/с
пор.,
м/с
влажн.,
%
обл.,
%
осадки,
мм/ч
давл.,
гПа
погр.,
м
15 мая, сб
сб1501:00+17ююв226325 0.0 102017
04:00+15ююв226234 0.0 102013
07:00+17ююв265849 0.0 1020139
10:00+22ю58415 0.0 1020331
13:00+26ю69315 0.0 1020809
16:00+26ю693222 0.0 10191050
19:00+23ю384769 0.0 1018151
22:00+19ююв335254 0.0 101928
16 мая, вс
вс1601:00+17ююв22536 0.0 101812
04:00+16юв11605 0.0 101811
07:00+18юв22595 0.0 101969
10:00+22ю47445 0.0 1019338
13:00+26ююз583670 0.0 10191039
16:00+27ююз592848 0.0 10181959
19:00+25сз1143100 0.0 101711
22:00+21в2244100 0.0 101711
17 мая, пн
пн1701:00+19юв1153100 0.0 101811
04:00+19ююв225495 0.0 101919
07:00+20юв255890 0.0 1019107
10:00+23ююв464770 0.0 1019322
13:00+28ююв563483 0.0 10181089
16:00+28ююв3527100 0.0 10182128
19:00+25ссв014186 0.0 101711
22:00+22всв114274 0.0 101811
18 мая, вт
вт1801:00+19всв335395 0.0 101829
04:00+17в2260100 0.0 101714
07:00+18в2556100 0.0 1017146
10:00+23юв4644100 0.0 1017381
13:00+27ююв4634100 0.0 1016715
16:00+29ююв362599 0.0 10151964
19:00+26юв11385 0.0 101512
22:00+21вюв114566 0.0 101511
19 мая, ср
ср1901:00+19всв114595 0.0 101511
04:00+17в124621 0.0 101612
07:00+19вюв295097 0.0 1016225
10:00+25юв51040100 0.0 1015456
13:00+28ююв61034100 0.0 10151404
16:00+27юз4732100 0.0 1015922
19:00+25вюв224670 0.0 101520
22:00+21юз2241100 0.0 101512